Flag for U.S.A. Weather past 2 weeks in Newport News, Virginia, U.S.A.

Now
75 °F

Passing clouds.


Feels Like: 75 °F
Forecast: 71 / 81 °F
Wind: No wind

Location: Newport News / Williamsburg International Airport

Current Time: Aug 28, 2014 at 11:47:52 PM

Latest Report: Aug 28, 2014 at 10:54 PM


Visibility: 7 mi

Pressure: 30.03 "Hg

Humidity: 85%

Dew point: 70 °F

Location of Newport NewsLocation

Historic Weather in Newport News — Graph

°F

Newport News temperature yesterday

Maximum temperature yesterday: 88 °F (at 2:54 PM)
Minimum temperature yesterday: 63 °F (at 2:54 AM)
Average temperature yesterday: 75 °F

Past Weeks' High & Low Weather Summary

 TemperatureHumidityPressure
High91 °F (Aug 17, 2:54 PM)94% (Aug 27, 4:58 AM)30.15 "Hg (Aug 27, 4:58 AM)
Low63 °F (Aug 26, 4:54 AM)32% (Aug 14, 1:54 PM)29.76 "Hg (Aug 19, 4:54 AM)
Average79 °F67%29.98 "Hg
* Reported Aug 13 9:54 PM — Aug 28 9:54 PM, Newport News, Weather by CustomWeather, © 2014

Note: Actual official high and low records may vary slightly from our data, if they occured in-between our weather recording intervals... More about our weather records

Advertising

Newport News weather history for previous 24 hours

 ConditionsComfort  
Time TempWeatherWind HumidityBarometerVisibility
9:54 PM
Aug 28
75 °FClear.No wind88%30.02 "Hg7 mi
8:54 PM77 °FClear.5 mph82%30.00 "Hg10 mi
7:54 PM80 °FSunny.8 mph76%29.98 "Hg10 mi
6:54 PM86 °FSunny.6 mph55%29.95 "Hg10 mi
5:54 PM91 °FSunny.5 mph44%29.95 "Hg10 mi
4:54 PM91 °FSunny.8 mph44%29.94 "Hg10 mi
3:54 PM91 °FSunny.7 mph41%29.93 "Hg10 mi
2:54 PM89 °FPartly sunny.7 mph52%29.94 "Hg10 mi
1:54 PM89 °FPartly sunny.7 mph52%29.95 "Hg10 mi
12:54 PM89 °FSunny.6 mph50%29.95 "Hg10 mi
11:54 AM88 °FScattered clouds.No wind59%29.96 "Hg10 mi
10:54 AM85 °FSunny.6 mph63%29.96 "Hg10 mi
9:54 AM85 °FSunny.9 mph63%29.96 "Hg10 mi
8:54 AM82 °FSunny.10 mph67%29.94 "Hg10 mi
7:54 AM78 °FSunny.8 mph69%29.93 "Hg10 mi
6:54 AM78 °FClear.8 mph69%29.91 "Hg10 mi
5:54 AM73 °FClear.5 mph79%29.90 "Hg10 mi
4:54 AM73 °FClear.3 mph79%29.89 "Hg10 mi
3:54 AM72 °FClear.5 mph78%29.89 "Hg10 mi
2:54 AM72 °FPassing clouds.3 mph78%29.89 "Hg10 mi
1:54 AM71 °FClear.No wind81%29.90 "Hg10 mi
12:54 AM72 °FClear.No wind76%29.90 "Hg10 mi
11:54 PM
Aug 27
70 °FClear.No wind76%29.93 "Hg10 mi
Weather by CustomWeather, © 2014

See weather overviewHow to use our weather pages